This demonstration page uses our WeatherBlox Daily Observations layout. Learn more.

Left ArrowRight Arrow

Hourly Observations for June 27, 2019

Temp ( °F °C ) Dew Point ( °F °C ) Humidity (%) Winds ( mph kmh ) Pressure ( in mb ) Visibility ( mi km ) Precip ( " mm )
12:56 am 00:56 Clear 75 23.9 70 21.1 84 84 SSE 13 20 29.94 1014 10 16 0.00 0.00
1:56 am 01:56 Clear 73 22.8 68 20 84 84 SSE 12 19 29.93 1013 10 16 0.00 0.00
2:56 am 02:56 Clear 74 23.3 68 20 82 82 S 16 26 29.92 1013 10 16 0.00 0.00
3:56 am 03:56 Clear 74 23.3 67 19.4 79 79 S 17 28 29.91 1013 10 16 0.00 0.00
4:56 am 04:56 Clear 73 22.8 67 19.4 81 81 S 15 24 29.92 1013 10 16 0.00 0.00
5:56 am 05:56 Clear 72 22.2 66 18.9 82 82 S 15 24 29.92 1013 10 16 0.00 0.00
6:56 am 06:56 Sunny 72 22.2 66 18.9 82 82 S 16 26 29.91 1013 10 16 0.00 0.00
7:56 am 07:56 Sunny 75 23.9 67 19.4 76 76 S 17 28 29.91 1013 10 16 0.00 0.00
8:56 am 08:56 Sunny 77 25 68 20 74 74 S 21 33 29.90 1012 10 16 0.00 0.00
9:56 am 09:56 Mostly Sunny 80 26.7 69 20.6 69 69 SSW 16 26 29.92 1013 10 16 0.00 0.00
10:56 am 10:56 Sunny 82 27.8 68 20 63 63 SSW 18 30 29.91 1013 10 16 0.00 0.00
11:56 am 11:56 Sunny 84 28.9 69 20.6 61 61 S 16 26 29.90 1012 10 16 0.00 0.00
12:56 pm 12:56 Sunny 86 30 69 20.6 57 57 SSE 15 24 29.89 1012 10 16 0.00 0.00
1:56 pm 13:56 Sunny 89 31.7 69 20.6 52 52 SSW 17 28 29.88 1012 10 16 0.00 0.00
2:56 pm 14:56 Sunny 91 32.8 69 20.6 49 49 S 22 35 29.87 1012 10 16 0.00 0.00
3:56 pm 15:56 Sunny 92 33.3 69 20.6 47 47 S 18 30 29.86 1011 10 16 0.00 0.00
4:56 pm 16:56 Sunny 93 33.9 68 20 44 44 SSW 17 28 29.84 1011 10 16 0.00 0.00
5:56 pm 17:56 Sunny 94 34.4 69 20.6 44 44 S 14 22 29.83 1010 10 16 0.00 0.00
6:56 pm 18:56 Sunny 92 33.3 73 22.8 54 54 S 8 13 29.83 1010 10 16 0.00 0.00
7:56 pm 19:56 Sunny 89 31.7 75 23.9 63 63 SE 7 11 29.84 1010 10 16 0.00 0.00
8:25 pm 20:25 Mostly Sunny 86 30 73 23 66 66 SE 5 7 29.76 1008 10 16 0.00 0.00
8:56 pm 20:56 Sunny 84 28.9 73 22.8 70 70 SE 6 9 29.84 1011 10 16 0.00 0.03
9:56 pm 21:56 Clear with Light Rain 80 26.7 72 22.2 76 76 Calm 29.86 1011 10 16 0.00 0.03
10:56 pm 22:56 Clear 77 25 70 21.1 79 79 W 6 9 29.88 1012 10 16 0.00 0.03
11:56 pm 23:56 Clear 76 24.4 70 21.1 82 82 SW 6 9 29.88 1012 10 16 0.00 0.00

Powered by AerisWeather